This is the latest recevied weather packets stored in our database for station/object KE5OYL. If no packets are shown the sender has not sent any weather packets the latest 10 day(s).
| Time | Temp. | Humidity | Pressure | Rain* | Wind** | Luminosity | Snow |
|---|---|---|---|---|---|---|---|
| 1777293139 | 24.44° C | 83% | 1008.4 hPa | 0 mm | - | 34 W/m² | - |
| 1777292837 | 24.44° C | 84% | 1008 hPa | 0 mm | - | 32 W/m² | - |
| 1777292534 | 24.44° C | 83% | 1008.3 hPa | 0 mm | - | 18 W/m² | - |
| 1777292230 | 24.44° C | 83% | 1008.3 hPa | 0 mm | - | 11 W/m² | - |
| 1777291927 | 24.44° C | 84% | 1007.9 hPa | 0 mm | - | 10 W/m² | - |
| 1777291624 | 24.44° C | 83% | 1008.1 hPa | 0 mm | - | 12 W/m² | - |
| 1777291320 | 24.44° C | 83% | 1008.1 hPa | 0 mm | - | 9 W/m² | - |
| 1777291017 | 24.44° C | 83% | 1008.1 hPa | 0 mm | - | 4 W/m² | - |
| 1777290714 | 24.44° C | 83% | 1007.9 hPa | 0 mm | - | 2 W/m² | - |
| 1777290410 | 24.44° C | 83% | 1008 hPa | 0 mm | - | 2 W/m² | - |
| 1777290105 | 24.44° C | 83% | 1007.7 hPa | 0 mm | - | 1 W/m² | - |
| 1777289803 | 24.44° C | 83% | 1007.7 hPa | 0 mm | - | 0 W/m² | - |
| 1777289499 | 24.44° C | 83% | 1007.8 hPa | 0 mm | - | 0 W/m² | - |
| 1777289195 | 24.44° C | 83% | 1007.6 hPa | 0 mm | - | 0 W/m² | - |
| 1777288892 | 24.44° C | 83% | 1007.7 hPa | 0 mm | - | 0 W/m² | - |
| 1777288588 | 24.44° C | 84% | 1007.5 hPa | 0 mm | - | 0 W/m² | - |
| 1777288285 | 24.44° C | 84% | 1007.4 hPa | 0 mm | - | 0 W/m² | - |
| 1777287982 | 24.44° C | 84% | 1007.4 hPa | 0 mm | - | 0 W/m² | - |
| 1777287679 | 24.44° C | 84% | 1007.2 hPa | 0 mm | - | 0 W/m² | - |
| 1777287374 | 23.89° C | 85% | 1006.6 hPa | 0 mm | - | 0 W/m² | - |
| 1777287070 | 23.89° C | 85% | 1006.6 hPa | 0 mm | - | 0 W/m² | - |
| 1777286768 | 23.89° C | 85% | 1006.3 hPa | 0 mm | - | 0 W/m² | - |
| 1777286466 | 23.89° C | 85% | 1006.2 hPa | 0 mm | - | 0 W/m² | - |
| 1777286162 | 23.89° C | 85% | 1006.6 hPa | 0 mm | - | 0 W/m² | - |
| 1777285860 | 23.89° C | 85% | 1006.3 hPa | 0 mm | - | 0 W/m² | - |
* Rain latest hour (hover to see other rain measurements)
** Current wind speed in m/s (hover to see current wind gust speed)